TimeCDT,TemperatureF,Dew PointF,Humidity,Sea Level PressureIn,VisibilityMPH,Wind Direction,Wind SpeedMPH,Gust SpeedMPH,PrecipitationIn,Events,Conditions,WindDirDegrees,DateUTC
12:52 AM,50.0,30.9,48,30.11,10.0,East,5.8,-,N/A,,Clear,100,2012-09-15 05:52:00
1:52 AM,46.4,33.8,62,30.09,10.0,East,6.9,-,N/A,,Clear,80,2012-09-15 06:52:00
2:52 AM,50.0,32.0,50,30.08,10.0,ESE,9.2,-,N/A,,Clear,110,2012-09-15 07:52:00
3:52 AM,46.0,33.1,61,30.06,10.0,ENE,6.9,-,N/A,,Clear,70,2012-09-15 08:52:00
4:52 AM,45.0,33.1,63,30.03,10.0,East,10.4,-,N/A,,Clear,90,2012-09-15 09:52:00
5:52 AM,43.0,34.0,71,30.03,10.0,East,10.4,-,N/A,,Clear,90,2012-09-15 10:52:00
6:52 AM,45.0,34.0,65,30.00,10.0,East,10.4,-,N/A,,Clear,90,2012-09-15 11:52:00
7:52 AM,45.0,34.0,65,30.01,10.0,ENE,4.6,-,N/A,,Clear,70,2012-09-15 12:52:00
8:52 AM,51.8,35.6,54,29.97,10.0,ESE,3.5,-,N/A,,Clear,110,2012-09-15 13:52:00
9:52 AM,61.0,35.1,38,29.97,10.0,Calm,Calm,-,N/A,,Clear,0,2012-09-15 14:52:00
10:52 AM,66.9,36.0,32,29.95,10.0,SW,6.9,-,N/A,,Clear,220,2012-09-15 15:52:00
11:52 AM,73.0,35.1,25,29.93,10.0,SW,8.1,-,N/A,,Clear,230,2012-09-15 16:52:00
12:52 PM,79.0,34.0,20,29.91,10.0,WSW,6.9,-,N/A,,Clear,250,2012-09-15 17:52:00
1:52 PM,84.0,35.1,17,29.89,10.0,West,5.8,-,N/A,,Clear,270,2012-09-15 18:52:00
2:52 PM,87.1,34.0,15,29.87,10.0,SSW,5.8,-,N/A,,Clear,210,2012-09-15 19:52:00
3:52 PM,90.0,28.9,11,29.86,10.0,NW,15.0,18.4,N/A,,Clear,320,2012-09-15 20:52:00
4:52 PM,90.0,21.0,8,29.87,10.0,NW,15.0,24.2,N/A,,Clear,320,2012-09-15 21:52:00
5:52 PM,84.9,26.1,12,29.89,10.0,NW,19.6,31.1,N/A,,Clear,320,2012-09-15 22:52:00
6:52 PM,82.0,32.0,16,29.91,10.0,NNW,15.0,23.0,N/A,,Clear,330,2012-09-15 23:52:00
7:52 PM,77.0,35.1,22,29.92,10.0,NNW,9.2,-,N/A,,Clear,340,2012-09-16 00:52:00
8:52 PM,73.0,36.0,26,29.94,10.0,NNW,6.9,-,N/A,,Clear,340,2012-09-16 01:52:00
9:52 PM,68.0,37.9,33,29.96,10.0,Calm,Calm,-,N/A,,Clear,0,2012-09-16 02:52:00
10:52 PM,62.1,39.0,43,29.97,10.0,WNW,4.6,-,N/A,,Clear,300,2012-09-16 03:52:00
11:52 PM,59.0,39.0,48,29.99,10.0,West,4.6,-,N/A,,Clear,280,2012-09-16 04:52:00